Location: *
(48.8489°N, 2.3218°E)
Time: 23:47:45
(UTC+00:00)

Cosmos 1500 - Pass Details

Date: 23 August 2019
Orbit: 499 x 522 km, 82.5° (Epoch: 19 September)

Event Time Altitude Azimuth Distance (km) Brightness Sun altitude
Exits shadow 20:48:50 - 201° (SSW) 1,834 5.8 -17.4°
Reaches altitude 10° 20:49:02 10° 202° (SSW) 1,754 5.7 -17.4°
Maximum altitude 20:52:50 58° 282° (WNW) 611 3.8 -17.9°
Drops below altitude 10° 20:56:39 10° 3° (N) 1,760 6.4 -18.4°
Sets 20:58:49 0° 7° (N) 2,649 7.4 -18.6°
